User: anonymous   Login
Location: Kirchberg
(47.4114°N, 9.0398°E)
Time: 17:20:08
(UTC+00:00)
Language:

Cosmos 2154 Rocket - Orbit

View from above orbital plane
View from above orbital plane
View from above satellite
View from above satellite

Ground track
Ground track

The orbit data is extracted from the following two-line orbital elements,

1 21667U 91059B   21125.48484715  .00000023  00000-0  81058-5 0  9990
2 21667  82.9100  32.9277 0019476 260.1408 273.7433 13.75105319490346
Epoch (UTC): 05 May 2021 11:38:10
Eccentricity: 0.0019476
inclination: 82.9100°
perigee height: 967 km
apogee height: 995 km
right ascension of ascending node: 32.9277°
argument of perigee: 260.1408°
revolutions per day: 13.75105319
mean anomaly at epoch: 273.7433°
orbit number at epoch: 49034

The dashed part of the orbit path shows where the satellite is in the earth's shadow,  

DLR